This is the latest recevied weather packets stored in our database for station/object IQ0OG-3. If no packets are shown the sender has not sent any weather packets the latest 10 day(s).
| Time | Temp. | Humidity | Pressure | Rain* | Wind** | Luminosity | Snow |
|---|---|---|---|---|---|---|---|
| 1777842606 | 12.78° C | 83% | 1017.1 hPa | 0 mm | - | - | - |
| 1777836005 | 12.22° C | 83% | 1017 hPa | 0 mm | - | - | - |
| 1777833605 | 12.78° C | 80% | 1016.6 hPa | 0 mm | - | - | - |
| 1777831205 | 13.33° C | 76% | 1016.6 hPa | 0 mm | - | - | - |
| 1777830004 | 13.89° C | 70% | 1016.6 hPa | 0 mm | - | - | - |
| 1777826404 | 15° C | 72% | 1016.9 hPa | 0 mm | - | - | - |
| 1777825205 | 15.56° C | 71% | 1016.7 hPa | 0 mm | - | - | - |
| 1777824004 | 15.56° C | 67% | 1016.5 hPa | 0 mm | - | - | - |
| 1777821605 | 15.56° C | 65% | 1016.9 hPa | 0 mm | - | - | - |
| 1777812004 | 16.11° C | 66% | 1018.4 hPa | 0 mm | - | - | - |
| 1777810804 | 16.11° C | 64% | 1018.4 hPa | 0 mm | - | - | - |
| 1777807204 | 17.22° C | 60% | 1018.7 hPa | 0 mm | - | - | - |
| 1777804204 | 17.78° C | 57% | 1019.1 hPa | 0 mm | - | - | - |
| 1777798203 | 17.78° C | 52% | 1019.3 hPa | 0 mm | - | - | - |
| 1777791004 | 15° C | 42% | 1019.1 hPa | 0 mm | - | - | - |
| 1777779603 | 12.22° C | 56% | 1018.6 hPa | 0 mm | - | - | - |
| 1777773603 | 13.33° C | 49% | 1018.8 hPa | 0 mm | - | - | - |
| 1777770003 | 13.33° C | 75% | 1019.1 hPa | 0 mm | - | - | - |
| 1777767002 | 11.67° C | 77% | 1019.4 hPa | 0 mm | - | - | - |
| 1777753802 | 13.33° C | 67% | 1021 hPa | 0 mm | - | - | - |
| 1777753202 | 13.33° C | 68% | 1020.9 hPa | 0 mm | - | - | - |
| 1777749002 | 13.33° C | 66% | 1020.8 hPa | 0 mm | - | - | - |
| 1777748402 | 13.33° C | 69% | 1020.7 hPa | 0 mm | - | - | - |
| 1777738202 | 15.56° C | 60% | 1020.5 hPa | 0 mm | - | - | - |
| 1777737001 | 15.56° C | 61% | 1020.5 hPa | 0 mm | - | - | - |
* Rain latest hour (hover to see other rain measurements)
** Current wind speed in m/s (hover to see current wind gust speed)